User: anonymous
Location: Oshawa
(43.9000°N, 78.8670°W)
Time: 05:28:33
(UTC-04:00)
Language:

ITAMSAT 1 - Orbit

View from above orbital plane
View from above orbital plane
View from above satellite
View from above satellite

Ground track
Ground track

The orbit data is extracted from the following two-line orbital elements,

1 22826U 93061D   14257.45414604  .00000175  00000-0  84847-4 0  5169
2 22826 098.6640 203.2960 0009409 035.8626 324.3186 14.30048349 93677
Epoch (UTC): 14 September 2014 10:53:58
Eccentricity: 0.0009409
inclination: 98.6640°
perigee height: 785 km
apogee height: 798 km
right ascension of ascending node: 203.2960°
argument of perigee: 35.8626°
revolutions per day: 14.30048349
mean anomaly at epoch: 324.3186°
orbit number at epoch: 9367

The dashed part of the orbit path shows where the satellite is in the earth's shadow,  

DLR